[TLELIST] Archives

 

[list_settings.list_name] Current TLEs

January 26th 2012 PST

HST 1 20580U 90037B 12023.37242700 .00001810 00000-0 12186-3 0 9280 2 20580 028.4704 017.4850 0003165 304.8857 055.1572 15.02121386992786 ISS (ZARYA) 1 25544U 98067A 12023.80487902 .00020786 00000-0 26547-3 0 8771 2 25544 051.6424 131.3508 0021786 315.5856 184.2204 15.58951665755348 CXO 1 25867U 99040B 12023.45833333 -.00000907 +00000-0 +00000-0 0 06938 2 25867 071.1896 015.6498 8741448 277.7733 356.1729 00.37801870008608 ____________________________________________________________________ These 2-Line ...Continue Reading

[list_settings.list_name] Current TLEs

January 23rd 2012 PST

HST 1 20580U 90037B 12020.31609646 .00001656 00000-0 11046-3 0 9267 2 20580 028.4703 037.4695 0003283 267.9875 092.0408 15.02110567992321 ISS (ZARYA) 1 25544U 98067A 12021.87334649 +.00013317 +00000-0 +17312-3 0 08654 2 25544 051.6410 141.0445 0021702 307.3905 145.2855 15.58877579755040 CXO 1 25867U 99040B 12 18.22432150 .00000000 00000-0 10000-3 0 6925 2 25867 071.1346 016.0212 8734478 277.7561 003.8155 00.37815561 8589 ____________________________________________________________________ These 2-Line ...Continue Reading

[list_settings.list_name] Current TLEs

January 22nd 2012 PST

PUBLIC "-//W3C//DTD XHTML 1.0 Transitional//EN" "http://www.w3.org/TR/xhtml1/DTD/xhtml1-transitional.dtd"> ____________________________________________________________________ These 2-Line Elements (TLEs) are direct from DoD/ USSTRATCOM/ US Space Command with permission. Updates are provided automatically daily. By receiving this email, you agree not to transfer any data or information received under this agreement, including the analysis of tracking data, to any other entity without the ...Continue Reading

[list_settings.list_name] Current TLEs

January 21st 2012 PST

HST 1 20580U 90037B 12020.31609646 .00001656 00000-0 11046-3 0 9267 2 20580 028.4703 037.4695 0003283 267.9875 092.0408 15.02110567992321 ISS (ZARYA) 1 25544U 98067A 12020.79120419 .00014276 00000-0 18528-3 0 8589 2 25544 051.6415 146.4771 0021657 303.0250 192.7366 15.58851296754873 CXO 1 25867U 99040B 12 18.22432150 .00000000 00000-0 10000-3 0 6925 2 25867 071.1346 016.0212 8734478 277.7561 003.8155 00.37815561 8589 ____________________________________________________________________ These 2-Line ...Continue Reading

[list_settings.list_name] Current TLEs

January 20th 2012 PST

HST 1 20580U 90037B 12020.31609646 .00001656 00000-0 11046-3 0 9267 2 20580 028.4703 037.4695 0003283 267.9875 092.0408 15.02110567992321 ISS (ZARYA) 1 25544U 98067A 12020.46819012 .00014601 00000-0 18940-3 0 8554 2 25544 051.6407 148.0992 0021665 301.7828 180.0711 15.58843233754823 CXO 1 25867U 99040B 12 18.22432150 .00000000 00000-0 10000-3 0 6925 2 25867 071.1346 016.0212 8734478 277.7561 003.8155 00.37815561 8589 ____________________________________________________________________ These 2-Line ...Continue Reading

[list_settings.list_name] Current TLEs

January 19th 2012 PST

HST 1 20580U 90037B 12019.25301921 .00001548 00000-0 10243-3 0 9250 2 20580 028.4706 044.4221 0003386 255.5194 104.4972 15.02106640992161 ISS (ZARYA) 1 25544U 98067A 12019.43992292 .00013049 00000-0 17018-3 0 8506 2 25544 051.6405 153.2633 0021785 298.2316 169.3750 15.58811515754669 CXO 1 25867U 99040B 12020.83333333 -.00001071 00000-0 00000+0 0 6912 2 25867 071.1678 015.8235 8740812 277.7526 358.9211 00.37802149 8595 ____________________________________________________________________ These 2-Line ...Continue Reading

[list_settings.list_name] Current TLEs

January 18th 2012 PST

HST 1 20580U 90037B 12016.26310801 .00001597 00000-0 10612-3 0 9248 2 20580 028.4703 063.9736 0003429 224.5893 135.4409 15.02098782991711 ISS (ZARYA) 1 25544U 98067A 12018.21347495 .00001805 00000-0 29372-4 0 8436 2 25544 051.6369 159.4258 0021702 294.8630 125.7551 15.58779618754470 CXO 1 25867U 99040B 12018.16666667 -.00001160 00000-0 00000+0 0 6902 2 25867 071.1447 016.0253 8739652 277.7222 356.0060 00.37807313 8583 ____________________________________________________________________ These 2-Line ...Continue Reading

[list_settings.list_name] Current TLEs

January 17th 2012 PST

HST 1 20580U 90037B 12016.26310801 .00001597 00000-0 10612-3 0 9248 2 20580 028.4703 063.9736 0003429 224.5893 135.4409 15.02098782991711 ISS (ZARYA) 1 25544U 98067A 12017.10822917 .00007627 00000-0 10254-3 0 8368 2 25544 051.6431 164.9673 0022107 289.3685 045.0031 15.58744570754297 CXO 1 25867U 99040B 12018.16666667 -.00001160 00000-0 00000+0 0 6902 2 25867 071.1447 016.0253 8739652 277.7222 356.0060 00.37807313 8583 ____________________________________________________________________ These 2-Line ...Continue Reading

[list_settings.list_name] Current TLEs

January 17th 2012 PST

HST 1 20580U 90037B 12016.26310801 .00001597 00000-0 10612-3 0 9248 2 20580 028.4703 063.9736 0003429 224.5893 135.4409 15.02098782991711 ISS (ZARYA) 1 25544U 98067A 12016.42507582 .00013761 00000-0 17968-3 0 8309 2 25544 051.6423 168.3956 0021881 286.2258 172.1262 15.58720276754194 CXO 1 25867U 99040B 12018.16666667 -.00001160 00000-0 00000+0 0 6902 2 25867 071.1447 016.0253 8739652 277.7222 356.0060 00.37807313 8583 ____________________________________________________________________ These 2-Line ...Continue Reading

[list_settings.list_name] Current TLEs

January 16th 2012 PST

HST 1 20580U 90037B 12013.33966485 .00001544 00000-0 10224-3 0 9238 2 20580 028.4703 083.0867 0003380 194.0907 166.1770 15.02090662991274 ISS (ZARYA) 1 25544U 98067A 12015.39747968 .00014531 00000-0 18955-3 0 8244 2 25544 051.6425 173.5548 0021831 282.4188 165.9075 15.58693097754031 CXO 1 25867U 99040B 12015.54166667 -.00000979 00000-0 00000+0 0 6891 2 25867 071.1188 016.2406 8735985 277.6960 358.7349 00.37804312 8574 ____________________________________________________________________ These 2-Line ...Continue Reading
  • This mailing list is a public mailing list - anyone may join or leave, at any time.
  • This mailing list is announce-only.

International Space Station (ISS) / Hubble Space Telescope (HST) / Chandra X-Ray Observatory Orbital Data via EMAIL

Privacy Policy:

Private list